Location: Unspecified
(0.0000°N, 0.0000°E)
Time: 01:36:08
(UTC+00:00)

A-11 Canister half - Visible Passes

Search period start: 20 July 2019 00:00
Search period end: 30 July 2019 00:00
Orbit: 1526 x 1683 km, 47.3° (Epoch: 19 July)

Date Brightness Start Highest point End Pass type
(mag) Time Alt. Az. Time Alt. Az. Time Alt. Az.
20 Jul 11.6 03:22:26 10° NNE 03:24:02 10° NE 03:25:37 10° NE visible
20 Jul 9.5 05:20:16 10° NNW 05:29:29 66° NE 05:38:43 10° SE visible
20 Jul 11.8 20:25:35 10° NW 20:26:54 10° NW 20:28:13 10° NW visible
21 Jul 9.5 04:58:43 10° NNW 05:07:53 62° NE 05:17:01 10° SE visible
21 Jul 11.7 20:02:08 10° WNW 20:05:10 12° NW 20:08:10 10° NNW visible
22 Jul 9.6 04:37:09 10° NNW 04:46:16 57° NE 04:55:20 10° SE visible
22 Jul 11.7 19:39:25 10° WNW 19:43:26 13° NW 19:47:26 10° NNW visible
23 Jul 9.6 04:15:37 10° NNW 04:24:40 53° NE 04:33:37 10° SE visible
23 Jul 11.6 19:16:55 10° WNW 19:21:42 14° NW 19:26:29 10° NNW visible
24 Jul 9.7 03:54:05 10° NNW 04:03:03 50° NE 04:11:55 10° ESE visible
24 Jul 11.6 18:54:34 10° W 18:59:58 16° NW 19:05:23 10° NNW visible
25 Jul 9.8 03:32:34 10° NNW 03:41:26 46° NE 03:50:11 10° ESE visible
25 Jul 9.4 05:37:55 10° WNW 05:46:12 36° SW 05:54:31 10° SSE visible
25 Jul 11.5 18:32:19 10° W 18:38:15 17° NW 18:44:13 10° N visible
26 Jul 9.8 03:11:04 10° NNW 03:19:49 43° NE 03:28:26 10° ESE visible
26 Jul 9.3 05:16:07 10° WNW 05:24:34 39° SW 05:33:03 10° SSE visible
27 Jul 9.9 02:49:34 10° NNW 02:58:11 40° NE 03:06:41 10° ESE visible
27 Jul 9.2 04:54:20 10° WNW 05:02:57 42° SW 05:11:35 10° SSE visible
28 Jul 10.0 02:35:50 37° NE 02:36:34 37° NE 02:44:54 10° ESE visible
28 Jul 9.1 04:34:33 17° WNW 04:41:20 45° SW 04:50:05 10° SSE visible
29 Jul 10.5 02:19:05 25° E 02:19:05 25° E 02:23:06 10° ESE visible
29 Jul 9.0 04:17:37 42° W 04:19:44 49° SW 04:28:35 10° SSE visible
